Simultaneous Nadir Overpasses (SNOs) Predictions

Prediction of SNOs between GOES-17 and NOAA-21 Satellite Orbit:

Table of predicted SNOs for the next 14.0 days since TLE Epoch: 9/21/2024
Index Date Time (GOES-17) GOES-17 Lat,Lon NOAA-21 Lat,Lon Distance(km) Time Diff (sec)
1 09/21/2024 08:11:53 -0.01,-104.70 -0.59,-101.97 309.69 80
2 09/22/2024 20:33:52 -0.01,-104.71 -0.61,-107.28 294.32 80
3 09/23/2024 20:17:50 -0.00,-104.70 0.40,-102.76 221.22 80
4 09/25/2024 08:39:41 0.00,-104.69 0.76,-108.04 381.66 80
5 09/26/2024 08:18:19 -0.01,-104.69 -0.26,-103.52 133.51 80
6 09/27/2024 20:40:18 0.02,-104.69 -0.93,-108.83 471.47 80
7 09/28/2024 20:24:15 0.02,-104.70 0.10,-104.30 44.71 80
8 10/01/2024 08:27:23 -0.01,-104.70 0.07,-105.05 40.19 80
9 10/02/2024 08:06:01 -0.00,-104.70 -0.97,-100.53 475.94 80
10 10/03/2024 20:27:59 -0.00,-104.71 -0.26,-105.83 128.13 80
11 10/04/2024 20:11:56 -0.01,-104.71 0.73,-101.30 388.46 80
